Zurück zum Katalog

STARLINK-38130

AktivKommunikationSSO
NORAD 100187·PAYLOAD·🇺🇸 United States

Gestartet Aug 1, 2026 von Vandenberg Space Force Base

Loading…

Nächste Überflüge (nächste 24 Stunden)

TLE

AktuellSource: Space-Track

Epoche: Sep 14, 2026, 12:50 UTC

1 A0187U 26175J   26257.53513652  .00231341  00000-0  15095-2 0  9995
2 A0187  97.2826  99.6205 0001420 122.3554 237.7848 15.75200837  8232

Verfolge STARLINK-38130 in Echtzeit mit AllMySat

Download on the App Store